SCP
0 0 0 0 0 0 0 0 0 0 0 0 0 0 0 0 0 0 0 0 0 0 0 0 0 0 0 0 0 0 0 0 0 0 0 0 0 0 0 0 0 0 0
0 0 0 0 0 0 0 0 0 0 0 0 0 0 0 0 0 0 0 0 0 0 0 0 0 0 0 0 0 0 0 0 0 0 0 0 0 0 0 0 0 0 0
0 0 0 0 0 0 0 0 0 0 0 0 0 0 0 0 0 0 0 0 0 0 0 0 0 0 0 0 0 0 0 0 0 0 0 0 0 0 0 0 0 0 0
0 0 0 0 0 0 0 0 0 0 0 0 0 0 0 0 0 0 0 0 0 0 0 0 0 0 0 0 0 0 0 0 0 0 0 0 0 0 0 0 0 0 0
0 0 0 0 0 0 0 0 0 0 0 0 0 0 0 0 0 0 0 0 0 0 0 0 0 0 0 0 0 0 0 0 0 0 0 0 0 0 0 0 0 0 0
0 0 0 0 0 0 0 0 0 0 0 0 0 0 0 0 0 0 0 0 0 0 0 0 0 0 0 0 0 0 0 0 0 0 0 0 0 0 0 0 0 0 0
0 0 0 0 0 0 0 0 0 0 0 0 0 0 0 0 0 0 0 0 0 0 0 0 0 0 0 0 0 0 0 0 0 0 0 0 0 0 0 0 0 0 -0
0 0 0 0 0 0 0 0 0 0 0 0 0 0 0 0 0 0 0 0 0 0 0 0 0 0 0 0 0 0 0 0 0 0 0 0 0 0 0 0 0 0 0
0 0 0 0 0 0 0 0 0 0 0 0 0 0 0 0 0 0 0 0 0 0 0 0 0 0 0 0 0 0 0 0 0 0 0 0 0 0 0 0 0 0 0
0 0 0 0 0 0 0 0 0 0 0 0 0 0 0 0 0 0 0 0 0 0 0 0 0 0 0 0 0 0 0 0 0 0 0 0 0 0 0 0 0 0 0
0 0 0 0 0 0 0 0 0 0 0 0 0 0 0 0 0 0 0 0 0 0 0 0 0 0 0 0 0 0 0 0 0 0 0 0 0 0 0 0 0 0 0
0 0 0 0 0 0 0 0 0 0 0 0 0 0 0 0 0 0 0 0 0 0 0 0 0 0 0 0 0 0 0 0 0 0 0 0 0 0 0 0 0 0 0
0 0 0 0 0 0 0 0 0 0 0 0 0 0 0 0 0 0 0 0 0 0 0 0 0 0 0 0 0 0 0 0 0 0 0 0 0 0 0 0 0 0 0
0 0 0 0 0 0 0 0 0 0 0 0 0 0 0 0 0 0 0 0 0 0 0 0 0 0 0 0 0 0 0 0 0 0 0 0 0 0 0 0 0 0 0
0 0 0 0 0 0 0 0 0 0 0 0 0 0 0 0 0 0 0 0 0 0 0 0 0 0 0 0 0 0 0 0 0 0 0 0 0 0 0 -0 0 0 0
0 0 0 0 0 0 0 0 0 0 0 0 0 0 0 0 0 0 0 0 0 0 0 0 0 0 0 0 0 0 0 0 0 0 0 -0 0 0 0 0 -0 -0 -0
0 0 0 0 0 0 0 0 0 0 0 0 0 0 0 0 0 0 0 0 0 0 0 0 0 0 0 0 0 0 0 -0 -0 -0 -0 -0 0 0 -0 -0 -0 0 0
0 0 0 0 0 0 0 0 0 0 0 0 0 0 0 0 0 0 0 0 0 0 0 0 0 0 0 0 0 0 0 -0 0 -0 -0 0 0 0 -0 -0 0 0 0
0 0 0 0 0 0 0 0 0 0 0 0 0 0 0 0 0 0 0 0 0 0 0 0 0 0 -0 0 -0 -0 -0 0 0 0 0 0 0 0 0 0 0 0 0
0 0 0 0 0 0 0 0 0 0 0 0 0 0 0 0 0 0 0 0 0 0 0 0 0 -0 -0 -0 -0 -0 -0 -0 0 -0 0 0 0 0 0 0 0 0 0
0 0 0 0 0 0 0 0 0 0 0 0 0 0 0 0 0 0 0 0 0 0 0 0 0 0 0 0 0 -0 -0 -0 -0 -0 -0 0 0 0 0 0 0 0 0
0 0 0 0 0 0 0 0 0 0 0 0 0 0 0 0 0 0 0 0 0 0 0 0 0 0 0 0 0 0 -0 -0 -0 -0 -0 0 -0 0 0 0 0 -0 -0
0 0 0 0 0 0 0 0 0 0 0 0 0 0 0 0 0 0 0 0 0 0 0 0 0 0 0 0 0 0 0 0 0 0 -0 0 0 0 0 0 -0 -0 0
0 0 0 0 0 0 0 0 0 0 0 0 0 0 0 0 0 0 0 0 0 0 0 0 0 0 0 0 0 0 0 0 0 0 0 0 0 0 0 -0 -0 -0 0
0 0 0 0 0 0 0 0 0 0 0 0 0 0 0 0 0 0 0 0 0 0 0 0 0 0 0 0 0 0 0 0 0 0 0 0 0 0 0 -0 -0 0 -0
0 0 0 0 0 0 0 0 0 0 0 0 0 0 0 0 0 0 0 0 0 0 0 0 0 0 0 0 0 0 0 0 0 0 0 0 0 -0 0 0 0 -0 -0
Wind_Speed_500mb
32 34 36 36 37 35 35 33 32 32 32 31 30 31 30 30 28 29 29 27 28 30 32 32 35 37 38 41 44 46 49 51 53 58 55 53 53 48 47 43 43 52 50
40 38 37 39 40 38 37 38 37 38 38 38 36 34 34 33 32 33 33 31 30 30 31 32 33 36 39 42 42 46 51 53 55 57 60 60 62 63 63 53 51 49 53
42 44 42 41 40 37 40 43 42 43 44 41 43 39 38 37 38 38 37 36 33 32 32 34 38 40 42 46 50 52 53 54 57 59 62 65 69 69 69 67 62 60 57
42 44 49 49 44 43 42 45 46 47 47 45 45 43 42 41 41 40 38 36 32 34 36 32 31 35 40 42 43 46 50 48 58 57 60 60 68 75 74 72 73 69 66
47 44 51 54 50 48 48 48 46 46 51 49 47 46 43 43 43 43 42 37 36 35 33 30 32 40 40 39 39 37 42 44 46 48 52 61 67 69 74 75 78 81 77
50 46 50 51 50 51 54 54 54 52 49 49 47 48 47 44 44 46 45 40 37 34 39 39 39 38 36 37 31 28 33 38 40 45 44 50 59 53 47 72 88 91 85
44 47 46 50 51 52 50 56 53 55 55 51 50 54 52 49 49 48 40 43 40 43 31 27 26 28 28 23 24 29 30 30 34 38 42 44 51 58 55 53 48 63 70
46 46 48 49 52 50 50 55 55 57 56 56 56 53 45 53 46 30 31 36 34 21 14 19 23 22 21 17 20 29 31 33 38 42 44 43 44 46 48 53 60 58 57
45 43 44 49 49 47 47 52 56 51 57 51 50 46 18 12 19 33 35 26 19 13 10 13 28 29 29 31 32 35 37 38 43 48 48 47 49 53 51 51 56 56 55
37 38 45 46 40 40 44 45 44 51 57 44 49 43 36 34 19 8 9 11 5 3 8 19 19 25 27 28 31 35 37 40 43 47 49 50 53 56 60 60 57 57 56
35 37 43 45 46 43 45 44 41 40 40 42 46 45 34 34 27 20 13 12 9 17 18 22 31 28 27 29 35 40 43 48 50 54 56 59 62 65 64 66 68 64 58
36 41 45 35 34 42 34 31 29 33 34 38 37 38 36 37 30 21 16 23 16 14 20 15 18 23 26 29 32 33 35 34 39 43 44 46 48 52 56 61 64 68 70
38 41 31 31 31 36 36 40 38 38 37 34 30 28 28 30 29 26 24 22 16 17 15 15 15 16 19 20 22 25 29 33 37 40 43 48 50 51 55 57 58 60 58
38 38 40 39 42 43 41 38 34 32 32 33 35 35 31 30 28 24 22 19 13 12 12 9 8 12 17 21 26 29 34 39 43 46 47 50 54 56 57 59 60 61 61
45 44 45 43 39 35 30 25 24 24 25 25 26 26 26 25 22 19 16 12 9 11 9 6 8 17 22 27 33 37 41 47 51 56 60 64 65 68 70 71 69 66 65
38 37 35 31 28 27 25 25 25 25 25 25 24 22 21 19 17 13 10 6 4 4 5 4 10 19 27 33 40 46 50 52 55 58 61 64 64 65 68 72 76 79 78
32 32 30 30 30 31 31 30 29 28 28 27 27 25 24 20 18 15 11 6 2 2 4 6 15 22 30 35 39 44 50 55 59 63 65 64 67 70 72 72 72 73 75
34 33 33 33 33 33 32 31 30 30 29 29 28 27 26 24 19 12 9 7 7 11 14 17 24 33 37 41 47 49 52 53 58 60 60 60 63 67 69 71 73 77 78
38 37 37 36 35 35 35 35 34 33 34 33 30 28 27 24 22 19 12 7 9 16 21 26 29 37 44 51 54 57 57 55 57 61 57 57 61 61 64 66 69 73 75
44 42 41 39 38 36 34 34 35 36 35 35 34 33 31 27 21 15 10 7 11 16 22 29 34 39 47 53 60 67 69 70 67 64 62 61 66 66 67 67 70 71 74
48 46 44 41 39 39 38 37 38 39 40 39 37 34 28 24 20 15 11 10 13 18 23 29 35 41 47 54 61 65 72 79 72 68 78 68 74 71 68 72 74 78 80
54 50 47 45 43 43 44 46 45 44 44 41 37 33 29 25 20 15 11 12 17 22 25 29 34 38 43 49 52 60 71 81 85 70 92 90 77 72 77 75 79 82 80
56 53 51 49 47 47 48 51 52 47 42 39 36 32 27 21 16 14 12 14 19 24 27 27 30 36 40 46 52 56 58 65 72 76 86 98 80 87 83 84 85 79 85
62 58 56 53 50 49 49 53 52 49 44 39 35 32 27 24 20 17 15 16 20 22 24 28 30 32 38 43 49 53 58 63 61 61 73 82 93 98 96 93 81 90 93
63 60 56 53 50 46 45 54 52 47 44 40 37 32 28 24 21 19 18 17 21 23 25 28 29 31 35 41 48 49 52 61 69 69 53 68 87 98 102 94 98 102 97
63 61 59 56 51 47 44 53 52 47 44 40 36 32 30 27 23 18 19 19 21 22 23 26 28 30 34 39 43 46 50 53 57 57 43 73 74 78 84 105 103 106 103
Wind_Direction_500mb
276 271 267 265 265 265 269 273 280 282 282 285 284 285 285 289 292 293 296 299 300 297 296 296 296 294 286 285 289 289 290 287 286 284 288 286 286 283 271 276 262 254 252
278 276 275 273 271 270 272 274 277 278 277 277 278 280 284 287 290 291 295 297 296 294 293 296 300 302 303 298 290 287 285 285 285 282 281 282 282 282 282 280 277 272 257
279 276 275 275 277 278 277 275 274 276 276 278 280 281 283 286 288 291 294 296 295 296 298 303 306 307 304 300 298 293 287 282 281 279 279 278 278 277 276 279 278 276 275
282 278 272 268 273 275 279 278 275 275 277 280 284 287 287 287 289 291 294 300 303 306 312 310 304 304 305 303 301 300 299 301 281 284 283 282 281 277 275 274 274 273 271
276 279 269 268 270 271 272 275 280 278 279 283 287 293 293 296 300 300 301 304 300 304 296 296 303 303 301 299 299 296 297 300 301 298 298 280 281 281 281 273 272 269 268
263 271 269 269 269 269 266 267 272 276 280 281 282 283 287 290 294 296 297 297 297 293 289 292 293 302 304 306 309 312 309 312 311 307 308 305 303 289 303 283 284 264 268
257 259 260 269 269 270 272 270 270 270 272 277 277 281 284 283 284 283 280 279 275 277 285 302 320 315 306 312 316 315 304 300 304 309 307 315 311 301 311 291 316 287 266
249 248 248 257 261 263 266 271 269 269 271 269 268 271 276 288 301 294 298 281 274 275 323 329 325 304 309 287 272 279 287 299 305 305 308 312 312 314 313 304 312 330 317
249 250 256 259 268 265 271 270 266 266 269 270 269 272 265 245 267 295 293 270 301 288 321 302 285 297 295 298 301 299 308 311 310 307 308 310 316 312 318 317 313 317 313
250 250 259 256 262 278 277 272 273 269 266 267 269 268 264 267 278 227 235 263 272 333 263 274 299 304 304 299 299 300 304 311 314 313 316 312 306 311 311 314 316 316 317
255 260 262 261 264 260 264 262 267 269 262 260 265 260 259 255 243 230 229 266 217 278 281 286 294 295 298 308 306 311 309 308 305 308 309 307 307 306 309 307 309 311 313
261 265 264 273 257 271 277 253 263 271 267 266 267 255 255 241 255 244 249 242 248 249 260 268 281 296 310 317 321 328 332 336 338 339 338 336 332 328 323 320 319 312 308
260 259 255 264 251 256 260 268 264 264 264 264 262 250 244 247 248 255 260 248 238 211 231 269 305 322 340 346 344 345 345 347 348 345 342 343 341 339 336 334 331 328 324
254 256 260 262 265 267 265 262 258 254 247 242 242 243 239 239 246 247 241 236 222 200 215 227 310 334 340 343 349 348 352 355 352 350 351 351 349 347 345 343 339 335 331
257 259 261 261 259 256 251 244 239 236 233 231 228 226 225 225 228 233 237 231 203 162 172 210 334 334 343 347 350 353 354 352 350 350 350 351 349 347 345 343 343 342 339
251 251 248 245 241 240 238 236 235 232 228 225 221 219 221 222 224 219 210 195 170 149 153 288 338 335 338 343 346 347 349 352 349 347 348 349 345 343 341 340 341 340 339
239 235 232 231 232 233 234 234 232 228 222 216 211 207 203 197 194 192 202 225 286 9 47 347 338 338 337 342 343 343 342 344 343 342 345 345 341 339 340 340 339 337 336
235 235 235 237 238 237 235 233 230 226 221 212 204 198 194 187 187 196 218 253 310 336 347 345 340 338 338 340 338 337 338 339 337 336 340 339 335 337 338 337 338 336 334
240 241 241 240 239 236 231 226 224 219 212 206 198 191 192 190 194 203 216 258 311 330 337 340 342 336 335 333 332 332 332 332 335 332 334 332 333 332 334 334 333 331 330
242 240 239 238 236 233 229 226 222 218 211 202 198 196 197 199 201 208 224 268 308 326 331 333 332 333 330 329 328 327 326 329 331 332 327 335 330 334 333 332 331 329 329
240 238 236 234 231 228 227 225 220 214 210 206 202 202 203 209 213 224 241 271 301 312 319 322 323 325 324 325 328 330 327 327 330 334 326 331 330 331 331 331 330 332 332
236 232 231 231 231 229 228 221 217 214 211 210 212 209 210 217 226 237 255 278 296 304 309 314 317 320 321 322 324 327 330 331 333 336 327 328 330 329 329 330 332 331 334
232 231 230 229 227 226 226 223 221 216 215 214 215 215 217 224 230 250 267 284 292 299 304 308 313 316 317 320 326 326 325 327 328 332 325 322 327 327 329 330 331 332 332
232 230 228 226 224 224 224 220 219 218 219 220 222 224 223 228 235 249 260 274 283 294 303 308 308 314 323 323 322 325 323 322 320 325 327 321 325 325 326 328 330 331 331
229 227 226 225 222 223 226 220 217 215 217 219 220 221 226 235 244 247 258 274 286 294 299 306 314 319 321 319 316 317 318 322 324 331 328 324 324 324 322 325 328 327 329
228 225 221 219 221 220 226 222 217 218 218 219 220 223 229 239 252 251 261 267 276 287 295 304 309 313 313 311 313 319 323 324 325 329 329 324 325 335 326 320 322 321 326
Wind_Speed_850mb
32 34 36 36 37 35 35 33 32 32 32 31 30 31 30 30 28 29 29 27 28 30 32 32 35 37 38 41 44 46 49 51 53 58 55 53 53 48 47 43 43 52 50
40 38 37 39 40 38 37 38 37 38 38 38 36 34 34 33 32 33 33 31 30 30 31 32 33 36 39 42 42 46 51 53 55 57 60 60 62 63 63 53 51 49 53
42 44 42 41 40 37 40 43 42 43 44 41 43 39 38 37 38 38 37 36 33 32 32 34 38 40 42 46 50 52 53 54 57 59 62 65 69 69 69 67 62 60 57
42 44 49 49 44 43 42 45 46 47 47 45 45 43 42 41 41 40 38 36 32 34 36 32 31 35 40 42 43 46 50 48 58 57 60 60 68 75 74 72 73 69 66
47 44 51 54 50 48 48 48 46 46 51 49 47 46 43 43 43 43 42 37 36 35 33 30 32 40 40 39 39 37 42 44 46 48 52 61 67 69 74 75 78 81 77
50 46 50 51 50 51 54 54 54 52 49 49 47 48 47 44 44 46 45 40 37 34 39 39 39 38 36 37 31 28 33 38 40 45 44 50 59 53 47 72 88 91 85
44 47 46 50 51 52 50 56 53 55 55 51 50 54 52 49 49 48 40 43 40 43 31 27 26 28 28 23 24 29 30 30 34 38 42 44 51 58 55 53 48 63 70
46 46 48 49 52 50 50 55 55 57 56 56 56 53 45 53 46 30 31 36 34 21 14 19 23 22 21 17 20 29 31 33 38 42 44 43 44 46 48 53 60 58 57
45 43 44 49 49 47 47 52 56 51 57 51 50 46 18 12 19 33 35 26 19 13 10 13 28 29 29 31 32 35 37 38 43 48 48 47 49 53 51 51 56 56 55
37 38 45 46 40 40 44 45 44 51 57 44 49 43 36 34 19 8 9 11 5 3 8 19 19 25 27 28 31 35 37 40 43 47 49 50 53 56 60 60 57 57 56
35 37 43 45 46 43 45 44 41 40 40 42 46 45 34 34 27 20 13 12 9 17 18 22 31 28 27 29 35 40 43 48 50 54 56 59 62 65 64 66 68 64 58
36 41 45 35 34 42 34 31 29 33 34 38 37 38 36 37 30 21 16 23 16 14 20 15 18 23 26 29 32 33 35 34 39 43 44 46 48 52 56 61 64 68 70
38 41 31 31 31 36 36 40 38 38 37 34 30 28 28 30 29 26 24 22 16 17 15 15 15 16 19 20 22 25 29 33 37 40 43 48 50 51 55 57 58 60 58
38 38 40 39 42 43 41 38 34 32 32 33 35 35 31 30 28 24 22 19 13 12 12 9 8 12 17 21 26 29 34 39 43 46 47 50 54 56 57 59 60 61 61
45 44 45 43 39 35 30 25 24 24 25 25 26 26 26 25 22 19 16 12 9 11 9 6 8 17 22 27 33 37 41 47 51 56 60 64 65 68 70 71 69 66 65
38 37 35 31 28 27 25 25 25 25 25 25 24 22 21 19 17 13 10 6 4 4 5 4 10 19 27 33 40 46 50 52 55 58 61 64 64 65 68 72 76 79 78
32 32 30 30 30 31 31 30 29 28 28 27 27 25 24 20 18 15 11 6 2 2 4 6 15 22 30 35 39 44 50 55 59 63 65 64 67 70 72 72 72 73 75
34 33 33 33 33 33 32 31 30 30 29 29 28 27 26 24 19 12 9 7 7 11 14 17 24 33 37 41 47 49 52 53 58 60 60 60 63 67 69 71 73 77 78
38 37 37 36 35 35 35 35 34 33 34 33 30 28 27 24 22 19 12 7 9 16 21 26 29 37 44 51 54 57 57 55 57 61 57 57 61 61 64 66 69 73 75
44 42 41 39 38 36 34 34 35 36 35 35 34 33 31 27 21 15 10 7 11 16 22 29 34 39 47 53 60 67 69 70 67 64 62 61 66 66 67 67 70 71 74
48 46 44 41 39 39 38 37 38 39 40 39 37 34 28 24 20 15 11 10 13 18 23 29 35 41 47 54 61 65 72 79 72 68 78 68 74 71 68 72 74 78 80
54 50 47 45 43 43 44 46 45 44 44 41 37 33 29 25 20 15 11 12 17 22 25 29 34 38 43 49 52 60 71 81 85 70 92 90 77 72 77 75 79 82 80
56 53 51 49 47 47 48 51 52 47 42 39 36 32 27 21 16 14 12 14 19 24 27 27 30 36 40 46 52 56 58 65 72 76 86 98 80 87 83 84 85 79 85
62 58 56 53 50 49 49 53 52 49 44 39 35 32 27 24 20 17 15 16 20 22 24 28 30 32 38 43 49 53 58 63 61 61 73 82 93 98 96 93 81 90 93
63 60 56 53 50 46 45 54 52 47 44 40 37 32 28 24 21 19 18 17 21 23 25 28 29 31 35 41 48 49 52 61 69 69 53 68 87 98 102 94 98 102 97
63 61 59 56 51 47 44 53 52 47 44 40 36 32 30 27 23 18 19 19 21 22 23 26 28 30 34 39 43 46 50 53 57 57 43 73 74 78 84 105 103 106 103
Wind_Direction_850mb
276 271 267 265 265 265 269 273 280 282 282 285 284 285 285 289 292 293 296 299 300 297 296 296 296 294 286 285 289 289 290 287 286 284 288 286 286 283 271 276 262 254 252
278 276 275 273 271 270 272 274 277 278 277 277 278 280 284 287 290 291 295 297 296 294 293 296 300 302 303 298 290 287 285 285 285 282 281 282 282 282 282 280 277 272 257
279 276 275 275 277 278 277 275 274 276 276 278 280 281 283 286 288 291 294 296 295 296 298 303 306 307 304 300 298 293 287 282 281 279 279 278 278 277 276 279 278 276 275
282 278 272 268 273 275 279 278 275 275 277 280 284 287 287 287 289 291 294 300 303 306 312 310 304 304 305 303 301 300 299 301 281 284 283 282 281 277 275 274 274 273 271
276 279 269 268 270 271 272 275 280 278 279 283 287 293 293 296 300 300 301 304 300 304 296 296 303 303 301 299 299 296 297 300 301 298 298 280 281 281 281 273 272 269 268
263 271 269 269 269 269 266 267 272 276 280 281 282 283 287 290 294 296 297 297 297 293 289 292 293 302 304 306 309 312 309 312 311 307 308 305 303 289 303 283 284 264 268
257 259 260 269 269 270 272 270 270 270 272 277 277 281 284 283 284 283 280 279 275 277 285 302 320 315 306 312 316 315 304 300 304 309 307 315 311 301 311 291 316 287 266
249 248 248 257 261 263 266 271 269 269 271 269 268 271 276 288 301 294 298 281 274 275 323 329 325 304 309 287 272 279 287 299 305 305 308 312 312 314 313 304 312 330 317
249 250 256 259 268 265 271 270 266 266 269 270 269 272 265 245 267 295 293 270 301 288 321 302 285 297 295 298 301 299 308 311 310 307 308 310 316 312 318 317 313 317 313
250 250 259 256 262 278 277 272 273 269 266 267 269 268 264 267 278 227 235 263 272 333 263 274 299 304 304 299 299 300 304 311 314 313 316 312 306 311 311 314 316 316 317
255 260 262 261 264 260 264 262 267 269 262 260 265 260 259 255 243 230 229 266 217 278 281 286 294 295 298 308 306 311 309 308 305 308 309 307 307 306 309 307 309 311 313
261 265 264 273 257 271 277 253 263 271 267 266 267 255 255 241 255 244 249 242 248 249 260 268 281 296 310 317 321 328 332 336 338 339 338 336 332 328 323 320 319 312 308
260 259 255 264 251 256 260 268 264 264 264 264 262 250 244 247 248 255 260 248 238 211 231 269 305 322 340 346 344 345 345 347 348 345 342 343 341 339 336 334 331 328 324
254 256 260 262 265 267 265 262 258 254 247 242 242 243 239 239 246 247 241 236 222 200 215 227 310 334 340 343 349 348 352 355 352 350 351 351 349 347 345 343 339 335 331
257 259 261 261 259 256 251 244 239 236 233 231 228 226 225 225 228 233 237 231 203 162 172 210 334 334 343 347 350 353 354 352 350 350 350 351 349 347 345 343 343 342 339
251 251 248 245 241 240 238 236 235 232 228 225 221 219 221 222 224 219 210 195 170 149 153 288 338 335 338 343 346 347 349 352 349 347 348 349 345 343 341 340 341 340 339
239 235 232 231 232 233 234 234 232 228 222 216 211 207 203 197 194 192 202 225 286 9 47 347 338 338 337 342 343 343 342 344 343 342 345 345 341 339 340 340 339 337 336
235 235 235 237 238 237 235 233 230 226 221 212 204 198 194 187 187 196 218 253 310 336 347 345 340 338 338 340 338 337 338 339 337 336 340 339 335 337 338 337 338 336 334
240 241 241 240 239 236 231 226 224 219 212 206 198 191 192 190 194 203 216 258 311 330 337 340 342 336 335 333 332 332 332 332 335 332 334 332 333 332 334 334 333 331 330
242 240 239 238 236 233 229 226 222 218 211 202 198 196 197 199 201 208 224 268 308 326 331 333 332 333 330 329 328 327 326 329 331 332 327 335 330 334 333 332 331 329 329
240 238 236 234 231 228 227 225 220 214 210 206 202 202 203 209 213 224 241 271 301 312 319 322 323 325 324 325 328 330 327 327 330 334 326 331 330 331 331 331 330 332 332
236 232 231 231 231 229 228 221 217 214 211 210 212 209 210 217 226 237 255 278 296 304 309 314 317 320 321 322 324 327 330 331 333 336 327 328 330 329 329 330 332 331 334
232 231 230 229 227 226 226 223 221 216 215 214 215 215 217 224 230 250 267 284 292 299 304 308 313 316 317 320 326 326 325 327 328 332 325 322 327 327 329 330 331 332 332
232 230 228 226 224 224 224 220 219 218 219 220 222 224 223 228 235 249 260 274 283 294 303 308 308 314 323 323 322 325 323 322 320 325 327 321 325 325 326 328 330 331 331
229 227 226 225 222 223 226 220 217 215 217 219 220 221 226 235 244 247 258 274 286 294 299 306 314 319 321 319 316 317 318 322 324 331 328 324 324 324 322 325 328 327 329
228 225 221 219 221 220 226 222 217 218 218 219 220 223 229 239 252 251 261 267 276 287 295 304 309 313 313 311 313 319 323 324 325 329 329 324 325 335 326 320 322 321 326